Location: Emporia
(38.4040°N, 96.1810°W)
Time: 17:09:16
(UTC-05:00)

ISS - Visible Passes

Search period start: 27 March 2015 00:00
Search period end: 06 April 2015 00:00
Orbit: 396 x 406 km, 51.6° (Epoch: 27 March)

Date Brightness Start Highest point End Pass type
(mag) Time Alt. Az. Time Alt. Az. Time Alt. Az.
27 Mar -0.5 05:35:54 10° NNW 05:37:47 15° NNE 05:39:42 10° ENE visible
28 Mar 0.0 04:44:31 11° NNE 04:44:31 11° NNE 04:45:04 10° NNE visible
28 Mar -2.0 06:18:11 10° NW 06:21:15 39° NNE 06:24:18 10° ESE visible
29 Mar -1.1 05:26:09 16° NNW 05:27:44 23° NNE 05:30:25 10° E visible
30 Mar 0.0 04:35:23 13° NE 04:35:23 13° NE 04:36:12 10° ENE visible
30 Mar -3.5 06:07:59 12° NW 06:10:54 87° SW 06:14:07 10° SE visible
31 Mar -2.4 05:17:25 45° NNE 05:17:27 45° NE 05:20:34 10° ESE visible
01 Apr -2.6 05:59:47 31° WSW 06:00:18 33° SW 06:03:13 10° SSE visible
02 Apr -0.6 05:09:48 12° SE 05:09:48 12° SE 05:10:06 10° SE visible
02 Apr -1.3 21:41:17 10° SW 21:42:30 21° SW 21:42:30 21° SW visible
03 Apr -2.7 20:48:04 10° SSW 20:51:03 35° SE 20:52:39 21° E visible
03 Apr -0.2 22:24:43 10° W 22:25:19 14° W 22:25:19 14° W visible
04 Apr -2.2 21:30:40 10° WSW 21:33:48 44° NW 21:35:05 28° NNE visible
05 Apr -3.4 20:36:55 10° SW 20:40:11 90° NE 20:43:27 10° NE visible
05 Apr -0.5 22:14:52 10° WNW 22:16:58 16° NNW 22:17:09 16° NNW visible
